Location: Unspecified
(40.7945°N, 111.1337°W)
Time: 06:10:42
(UTC-06:00)

ISS - Pass Details

Date: 26 March 2019
Orbit: 408 x 410 km, 51.6° (Epoch: 24 April)

Event Time Altitude Azimuth Distance (km) Brightness Sun altitude
Rises 20:04:08 0° 256° (WSW) 2,323 1.6 -4.8°
Reaches altitude 10° 20:06:20 10° 266° (W) 1,464 0.7 -5.2°
Maximum altitude 20:09:21 32° 333° (NNW) 718 -2.2 -5.8°
Drops below altitude 10° 20:12:22 10° 39° (NE) 1,469 -1.3 -6.4°
Sets 20:14:35 0° 49° (NE) 2,331 -0.4 -6.8°
Enters shadow 20:14:43 - 50° (NE) 2,385 -0.3 -6.8°
